Home   Weather   Debrecen   Past weeks

Flag for Hungary Past Weather in Debrecen, Hungary — Yesterday and Last 2 Weeks

Now
30 °F

Ice fog.


Feels Like: 20 °F
Forecast: 26 / 32 °F
Wind: 13 mph from Southwest

Location: Debrecen Airport

Current Time: Dec 8, 2016 at 1:16:50 pm

Latest Report: Dec 8, 2016 at 12:15 pm


Visibility: 3 mi

Pressure: 30.63 "Hg

Humidity: 86%

Dew Point: 27 °F

Location of DebrecenLocation

Past Weather in Debrecen — Graph

°F

Debrecen Temperature Yesterday

Maximum temperature yesterday: 27 °F (at 11:45 am)
Minimum temperature yesterday: 19 °F (at 5:15 am)
Average temperature yesterday: 25 °F

High & Low Weather Summary for the Past Weeks

 TemperatureHumidityPressure
High52 °F (Nov 26, 1:15 pm)100% (Nov 23, 9:45 pm)30.74 "Hg (Nov 23, 9:45 pm)
Low18 °F (Dec 5, 5:45 am)40% (Dec 2, 12:15 pm)29.53 "Hg (Dec 2, 7:15 am)
Average33 °F84%30.23 "Hg
* Reported Nov 23 11:15 am — Dec 8 11:45 am, Debrecen, Weather by CustomWeather, © 2016

Note: Actual official high and low records may vary slightly from our data, if they occured in-between our weather recording intervals... More about our weather records

Advertising

Debrecen Weather History for the Previous 24 Hours

Scroll right to see more
 ConditionsComfort  
Time TempWeatherWind HumidityBarometerVisibility
11:45 am
Thu, Dec 8
30 °FIce fog.10 mph86%30.63 "Hg3 mi
11:15 am30 °FIce fog.12 mph86%30.66 "Hg3 mi
10:45 am28 °FIce fog.9 mph93%30.66 "Hg2 mi
10:15 am28 °FIce fog.9 mph93%30.69 "Hg2 mi
9:45 am28 °FIce fog.8 mph93%30.69 "Hg2 mi
9:15 am28 °FIce fog.6 mph93%30.69 "Hg2 mi
8:45 am28 °FIce fog.6 mph93%30.69 "Hg2 mi
8:15 am28 °FIce fog.6 mph93%30.69 "Hg2 mi
7:45 am27 °FIce fog.5 mph100%30.69 "Hg2 mi
7:15 am27 °FIce fog.5 mph93%30.69 "Hg2 mi
6:48 am27 °FIce fog.5 mph93%30.74 "Hg2 mi
6:15 am27 °FIce fog.7 mph93%30.72 "Hg2 mi
5:45 am27 °FIce fog.5 mph93%30.72 "Hg2 mi
5:15 am27 °FIce fog.6 mph93%30.72 "Hg2 mi
4:45 am27 °FIce fog.6 mph93%30.72 "Hg2 mi
4:15 am27 °FIce fog.6 mph93%30.72 "Hg2 mi
3:15 am27 °FIce fog.6 mph93%30.74 "Hg2 mi
2:15 am27 °FIce fog.6 mph93%30.74 "Hg2 mi
7:15 pm
Wed, Dec 7
27 °FIce fog.5 mph93%30.74 "Hg0 mi
6:45 pm27 °FIce fog.5 mph93%30.74 "Hg0 mi
6:15 pm27 °FIce fog.3 mph93%30.74 "Hg0 mi
5:45 pm27 °FIce fog.3 mph93%30.74 "Hg0 mi
5:15 pm27 °FIce fog.3 mph93%30.74 "Hg0 mi
4:45 pm27 °FIce fog.3 mph93%30.74 "Hg0 mi
4:15 pm27 °FIce fog.3 mph100%30.72 "Hg0 mi
3:45 pm27 °FIce fog.3 mph100%30.72 "Hg0 mi
3:15 pm27 °FIce fog.2 mph100%30.72 "Hg0 mi
2:45 pm27 °FIce fog.3 mph100%30.72 "Hg0 mi
2:15 pm27 °FIce fog.2 mph100%30.72 "Hg0 mi
1:45 pm27 °FIce fog.2 mph100%30.72 "Hg0 mi
Weather by CustomWeather, © 2016

See weather overviewHow to use our weather pages